Wind_Speed
48 48 47 47 47 47 46 46 46 44 43 43 42 41 41 40 38 36 35 34 33 32 31 30 30 30 30 29 29 29 28 27 26 25 25 25 25 26
48 48 48 48 48 47 47 46 45 44 43 42 41 41 39 38 36 35 34 33 32 31 30 30 30 29 29 28 28 27 26 26 25 24 23 23 24 24
49 48 48 47 47 47 46 45 44 43 42 41 40 39 37 36 35 34 33 32 31 30 30 29 29 29 28 28 27 26 26 25 25 25 24 25 25 25
49 49 48 47 47 46 44 43 43 42 40 39 38 36 35 34 33 32 31 31 30 29 29 29 29 28 28 27 27 27 27 26 26 26 26 26 26 26
49 48 47 46 45 44 43 42 41 40 39 37 36 35 34 33 32 31 30 30 29 29 29 29 29 29 28 28 28 28 28 28 28 27 28 27 28 27
47 46 45 45 44 43 42 41 39 37 36 35 34 33 32 31 30 30 30 30 29 29 29 29 29 29 29 30 30 30 30 30 30 29 29 29 30 30
44 44 43 42 41 40 39 38 36 35 34 33 32 32 31 30 30 30 30 30 30 30 30 30 30 30 31 31 32 32 32 32 32 32 32 32 32 33
42 41 40 39 38 37 35 34 33 32 32 32 31 31 30 30 30 30 30 30 30 30 31 31 31 32 33 33 33 34 34 34 35 35 35 36 36 36
39 39 38 37 36 34 33 33 32 31 31 31 31 31 31 30 30 30 30 30 31 31 32 32 33 34 34 35 35 35 36 37 37 38 38 39 39 40
37 36 35 33 33 32 32 31 31 31 31 31 31 31 30 30 31 31 31 32 32 33 33 34 35 35 36 36 37 38 38 38 39 40 40 41 42 42
33 32 31 31 30 30 30 30 31 31 31 31 31 31 31 31 31 32 32 33 34 35 35 36 37 37 38 38 39 39 40 40 41 41 42 43 43 43
30 30 30 29 29 29 30 30 31 31 31 31 31 31 32 32 33 34 34 35 36 37 37 38 39 39 40 40 41 41 42 42 42 43 43 44 44 45
30 30 30 29 29 30 30 30 31 31 32 32 32 33 34 34 35 35 36 37 38 38 39 40 40 41 41 42 42 43 43 43 43 44 44 45 45 45
29 29 29 29 30 30 31 31 32 32 32 33 34 34 35 35 36 37 38 39 39 40 40 40 41 41 42 42 43 44 44 44 44 45 45 45 45 45
28 29 29 29 30 31 32 32 33 33 34 34 35 36 37 37 38 38 39 40 40 41 41 41 42 42 42 43 44 45 45 46 46 45 45 44 45 45
29 30 30 31 32 33 33 33 34 35 35 36 37 37 38 39 39 39 40 40 41 41 42 42 42 42 43 44 45 45 45 45 45 44 44 44 45 45
31 31 32 32 33 33 34 34 35 36 36 37 38 39 39 39 40 40 41 41 41 42 42 43 43 44 44 45 45 45 45 45 44 44 43 43 44 44
31 32 33 33 34 35 35 36 36 37 38 38 39 39 40 40 41 41 41 42 42 43 43 44 44 44 44 44 45 44 45 44 44 43 43 42 42 44
32 33 33 34 35 36 36 37 38 38 39 40 40 41 41 41 41 41 42 42 43 43 44 44 44 44 42 42 43 45 45 45 44 43 43 42 41 42
33 34 35 36 36 37 37 38 39 39 40 40 40 41 41 41 42 42 42 42 43 43 44 44 44 43 42 41 42 44 46 45 44 44 44 43 41 41
34 35 36 36 37 38 39 39 39 40 40 41 41 41 42 42 42 43 43 42 42 43 43 44 44 44 43 43 43 44 46 47 46 44 44 42 40 40
36 37 38 39 39 39 40 40 40 41 41 41 42 42 42 42 42 42 42 42 42 43 44 44 45 45 45 45 45 45 46 47 47 45 44 43 40 38
38 38 39 39 39 40 40 40 40 41 41 41 42 42 42 41 42 41 42 43 43 44 44 45 46 46 47 47 47 46 46 46 46 44 44 44 42 40
Wind_Direction
284 285 287 288 289 290 291 292 292 293 293 294 294 295 296 296 296 296 295 295 295 295 295 295 295 296 296 296 296 297 297 296 295 295 290 282 278 274
284 285 286 287 287 288 290 290 290 291 292 291 292 293 294 295 295 294 294 294 295 294 294 294 295 296 296 297 296 296 297 296 294 294 291 286 281 277
283 284 285 285 286 287 287 288 289 290 289 290 291 292 293 293 293 293 293 293 293 293 293 294 294 295 295 295 296 295 295 296 296 295 293 290 287 281
282 282 283 284 284 285 285 286 287 287 288 289 290 290 291 291 291 291 292 292 292 293 293 294 294 294 294 294 294 295 294 294 294 294 293 291 287 283
280 280 281 281 282 282 283 284 285 286 287 287 288 289 289 290 290 290 291 291 292 292 293 293 293 293 293 293 293 293 293 293 292 292 292 289 286 283
278 278 278 279 280 281 282 283 284 284 285 286 286 287 288 289 289 290 290 290 291 292 292 292 292 292 292 291 291 292 292 291 291 290 290 288 285 282
276 276 277 278 279 280 281 282 282 283 283 284 285 286 287 288 289 290 290 291 292 292 292 292 292 291 291 291 291 291 290 290 289 289 288 286 284 282
275 276 277 278 278 279 280 280 280 281 282 283 284 285 286 287 289 290 291 292 292 292 292 292 291 291 291 290 290 290 290 289 288 287 287 285 284 282
275 276 276 276 277 277 277 278 279 280 282 283 284 285 286 287 288 289 290 291 292 292 292 292 292 291 291 290 290 290 289 289 288 287 286 285 284 282
274 274 274 274 275 275 275 277 278 280 282 283 284 285 286 287 288 289 291 292 292 292 292 292 292 292 291 291 291 290 290 289 288 287 286 285 284 282
272 272 273 274 274 274 275 277 279 281 282 283 285 286 287 288 289 290 291 292 293 293 292 293 293 293 292 292 292 291 291 290 289 288 287 286 284 283
271 271 271 271 271 273 276 278 280 281 282 284 285 286 287 288 290 291 292 293 293 293 293 294 294 293 293 293 292 292 291 291 290 289 288 287 285 283
271 270 270 271 273 275 277 279 281 282 283 284 285 287 288 289 290 292 293 294 294 294 294 294 294 294 293 293 293 293 292 292 291 290 290 289 287 285
271 271 272 274 275 276 278 280 282 282 283 284 286 288 289 290 292 293 294 294 294 295 295 295 295 295 295 294 294 294 293 293 292 292 292 290 288 287
272 273 274 275 277 278 279 281 283 283 284 285 287 289 290 291 292 294 295 295 295 296 296 296 296 296 296 295 295 294 294 294 293 293 292 291 290 288
274 275 276 276 278 279 281 282 284 285 286 287 288 290 291 292 292 294 295 296 296 297 297 297 297 297 297 297 296 295 295 294 294 294 294 292 291 290
276 277 277 277 279 280 282 283 285 286 288 289 290 291 292 293 293 294 295 296 296 297 297 298 298 298 298 298 297 297 296 295 296 295 295 293 292 291
276 276 277 279 280 282 283 284 286 288 289 290 291 292 293 293 294 295 296 296 296 297 297 298 299 299 299 298 298 297 297 297 297 296 295 294 293 292
277 278 279 281 282 284 285 286 287 288 289 291 292 293 293 294 295 296 296 297 297 297 298 299 299 299 299 299 299 299 298 298 298 297 296 295 293 292
278 279 281 282 283 285 286 287 288 289 290 291 292 293 293 294 295 296 296 297 297 298 299 299 300 300 300 300 300 299 299 299 298 297 297 296 294 293
279 280 282 283 284 285 287 288 289 289 290 291 292 293 293 294 295 296 296 297 298 299 299 300 301 301 300 301 301 300 300 300 299 298 297 296 294 293
279 280 282 283 284 286 287 288 289 290 290 291 292 293 293 294 295 295 296 297 298 299 300 301 301 301 301 301 301 300 300 299 299 298 297 296 294 292
279 280 282 283 284 286 287 288 289 289 290 291 292 292 293 294 295 295 296 297 298 299 300 301 301 302 302 302 302 301 300 299 298 298 297 296 295 293
Height
5752 5751 5750 5748 5746 5744 5741 5739 5737 5735 5732 5729 5726 5722 5720 5717 5714 5711 5709 5707 5705 5702 5700 5698 5696 5694 5692 5689 5687 5685 5682 5679 5677 5675 5673 5671 5671 5671
5741 5740 5739 5737 5735 5733 5730 5728 5726 5724 5722 5719 5716 5713 5710 5707 5705 5703 5701 5698 5696 5694 5692 5690 5688 5686 5684 5681 5679 5677 5675 5672 5670 5668 5666 5665 5664 5664
5730 5728 5727 5725 5724 5721 5719 5717 5715 5713 5711 5708 5706 5703 5701 5698 5696 5694 5692 5690 5688 5686 5684 5682 5680 5678 5676 5674 5672 5670 5668 5666 5664 5662 5660 5659 5658 5657
5718 5716 5715 5714 5712 5710 5708 5706 5704 5702 5700 5698 5696 5693 5691 5689 5687 5685 5683 5681 5679 5678 5676 5674 5672 5670 5668 5666 5664 5662 5660 5659 5657 5655 5653 5652 5651 5650
5705 5704 5703 5702 5700 5698 5697 5695 5693 5691 5690 5688 5686 5684 5682 5680 5679 5677 5675 5673 5671 5669 5667 5666 5664 5662 5660 5658 5656 5654 5653 5651 5649 5648 5646 5645 5643 5643
5693 5692 5691 5690 5688 5687 5686 5684 5683 5681 5680 5678 5677 5675 5673 5672 5670 5668 5666 5665 5663 5661 5659 5657 5655 5653 5651 5650 5648 5646 5644 5642 5641 5639 5638 5637 5636 5635
5680 5680 5679 5678 5677 5676 5675 5674 5672 5671 5670 5669 5668 5666 5664 5663 5661 5659 5658 5656 5654 5652 5650 5648 5646 5645 5643 5641 5639 5637 5635 5633 5632 5630 5629 5627 5626 5625
5669 5668 5668 5667 5666 5665 5665 5664 5663 5662 5661 5660 5659 5657 5655 5654 5652 5651 5649 5647 5645 5644 5641 5639 5637 5635 5633 5631 5629 5627 5625 5623 5621 5620 5618 5616 5615 5614
5658 5657 5657 5656 5656 5655 5655 5654 5654 5653 5652 5651 5650 5648 5647 5645 5643 5642 5640 5638 5636 5634 5632 5630 5628 5626 5623 5621 5619 5617 5615 5612 5610 5608 5606 5604 5603 5601
5647 5647 5647 5646 5646 5646 5646 5645 5644 5644 5643 5642 5641 5639 5637 5636 5634 5632 5630 5628 5626 5624 5622 5620 5617 5615 5613 5610 5608 5605 5603 5601 5598 5596 5593 5591 5590 5588
5637 5637 5637 5637 5637 5637 5637 5636 5636 5635 5634 5633 5631 5630 5628 5626 5625 5623 5621 5619 5616 5614 5612 5609 5607 5604 5601 5599 5596 5593 5590 5588 5585 5582 5580 5577 5575 5573
5628 5628 5628 5628 5628 5628 5628 5627 5627 5626 5625 5623 5622 5620 5618 5617 5615 5613 5611 5608 5606 5603 5601 5598 5595 5592 5590 5586 5583 5580 5577 5574 5571 5568 5565 5563 5560 5558
5619 5619 5620 5620 5619 5619 5619 5618 5618 5617 5615 5614 5612 5611 5609 5607 5604 5602 5600 5597 5595 5592 5589 5586 5583 5580 5577 5574 5570 5567 5564 5561 5557 5554 5551 5548 5545 5542
5611 5611 5611 5611 5611 5611 5610 5609 5608 5607 5606 5604 5602 5601 5599 5596 5594 5591 5589 5586 5583 5580 5577 5574 5571 5568 5565 5561 5557 5553 5550 5547 5543 5540 5536 5533 5529 5526
5603 5603 5603 5602 5602 5601 5601 5600 5599 5597 5596 5594 5592 5590 5588 5586 5583 5580 5577 5574 5571 5568 5565 5562 5559 5555 5552 5548 5544 5540 5536 5532 5529 5526 5522 5518 5514 5511
5594 5594 5594 5593 5593 5592 5591 5590 5589 5587 5585 5584 5581 5579 5577 5574 5572 5569 5566 5563 5559 5556 5553 5549 5546 5542 5538 5534 5530 5526 5522 5518 5514 5511 5507 5503 5499 5495
5586 5585 5585 5584 5583 5582 5581 5580 5578 5577 5575 5573 5570 5568 5566 5563 5560 5557 5554 5551 5547 5543 5540 5536 5533 5529 5525 5520 5516 5511 5507 5504 5500 5497 5493 5489 5484 5480
5576 5576 5575 5574 5573 5572 5571 5569 5568 5566 5564 5561 5559 5557 5554 5551 5548 5545 5542 5538 5535 5531 5527 5523 5520 5516 5511 5506 5502 5497 5493 5489 5486 5482 5479 5475 5471 5465
5567 5566 5565 5564 5563 5562 5560 5559 5557 5554 5552 5550 5547 5545 5542 5539 5536 5533 5529 5526 5522 5518 5514 5510 5506 5502 5499 5494 5488 5483 5479 5475 5472 5468 5464 5461 5457 5452
5557 5556 5555 5554 5552 5551 5549 5547 5545 5543 5540 5538 5535 5532 5530 5527 5523 5520 5516 5513 5509 5505 5500 5496 5492 5489 5485 5482 5477 5469 5464 5461 5457 5454 5450 5446 5443 5439
5546 5545 5544 5543 5541 5539 5537 5535 5533 5531 5528 5526 5523 5520 5517 5514 5511 5507 5503 5500 5496 5492 5487 5483 5479 5475 5471 5468 5464 5458 5450 5446 5442 5439 5435 5431 5428 5425
5535 5534 5532 5531 5529 5527 5525 5523 5521 5518 5516 5513 5510 5507 5504 5501 5498 5494 5490 5487 5483 5479 5475 5470 5465 5461 5457 5453 5449 5444 5438 5432 5427 5423 5419 5416 5414 5412
5523 5522 5520 5519 5517 5515 5513 5511 5508 5506 5503 5501 5498 5495 5492 5488 5485 5481 5478 5474 5470 5465 5461 5457 5452 5447 5442 5438 5434 5429 5424 5418 5413 5410 5405 5400 5398 5396